[[{"header":{"parameterUnit":"m.s-1","parameterCategory":1,"la1":30.2991,"la2":30.254,"lo1":-89.0895,"lo2":-89.0444,"dy":0.0017,"dx":0.0017,"nx":28,"ny":28,"refTime":"2024-08-15T03:00:00:Z","depth":0,"parameterNumber":2,"parameterNumberName":"U-component_of_WINDS"},"data":[0,0,0,0,0,0,0,0,0,0,0,0,0,0,0,0,0,0,0,0,0,0,0,0,0,0,0,0,0,0,0,0,0,0,0,0,0,0,0,0,0,0,0,0,0,0,0,0,0,0,0,0,0,0,0,0,0,0,0.6344,0.6343,0,0.6267,0.6266,0.6265,0.6205,0.6204,0.6203,0.6203,0.6123,0.6121,0.612,0,0,0,0,0,0,0,0,0,0,0,0,0,0.6438,0.6436,0.6344,0.6343,0.6342,0.6267,0.6266,0.6265,0.6205,0.6204,0.6203,0.6203,0.6123,0.6122,0.612,0,0,0,0,0,0,0,0,0,0,0,0,0,0.6382,0.6436,0.6345,0.6303,0.6299,0.6267,0.6266,0.6265,0.6205,0.6204,0.6203,0.6202,0.6124,0.6122,0.6119,0.6122,0,0,0.6112,0.6111,0,0,0,0,0,0,0,0,0.6386,0.6379,0.631,0.6306,0.6301,0.6244,0.6269,0.6217,0.6205,0.6241,0.6203,0.6202,0.6164,0.6158,0.6146,0.6119,0.6115,0.6112,0.6111,0.6109,0.6109,0,0,0,0,0,0,0,0.639,0.6382,0.6314,0.6309,0.6304,0.6288,0.6279,0.6259,0.6208,0.6237,0.6233,0.6224,0.6161,0.6148,0.6143,0.6114,0.6112,0.611,0.6108,0.6108,0.6082,0.6082,0,0,0,0,0,0,0.64,0.6386,0.6316,0.6311,0.6342,0.6287,0.6277,0.6264,0.6208,0.6199,0.6225,0.6222,0.6153,0.6146,0.614,0.6137,0.611,0.6107,0.6106,0.6081,0.6082,0.6082,0,0,0,0,0,0,0.6402,0.6394,0.6319,0.6347,0.6336,0.6286,0.6272,0.6262,0.6249,0.6199,0.619,0.6221,0.6152,0.6144,0.6126,0.6134,0.6106,0.6104,0.608,0.6081,0.6082,0.6134,0,0,0,0,0,0,0.6405,0.6396,0.6397,0.6348,0.6335,0.6308,0.6272,0.6262,0.6245,0.624,0.6193,0.6184,0.615,0.613,0.6124,0.613,0.6102,0.6079,0.608,0.6082,0.6131,0.6136,0.6141,0,0,0,0,0,0.6409,0.6415,0.6397,0.6389,0.6336,0.6308,0.6301,0.6262,0.6246,0.6246,0.6214,0.6186,0.6135,0.6129,0.6122,0.6127,0.6078,0.608,0.6082,0.6129,0.6135,0.6141,0,0,0,0,0,0,0.6467,0.6408,0.6388,0.6378,0.6349,0.6298,0.6297,0.6271,0.6245,0.6241,0.6194,0.6184,0.6171,0.6147,0.6143,0.6125,0.6103,0.6103,0.6141,0.6147,0.6152,0.6157,0.61,0,0,0,0,0,0.6479,0.6462,0.6411,0.6408,0.6394,0.6348,0.6335,0.6307,0.6275,0.6262,0.6228,0.6197,0.6173,0.6159,0.6135,0.6128,0.6115,0.6127,0.6132,0.6137,0.6137,0.6128,0.6132,0.6088,0.6088,0.6088,0,0,0.6503,0.6468,0.6461,0.6418,0.6392,0.6374,0.6338,0.6322,0.6307,0.6259,0.624,0.6214,0.6176,0.6163,0.6156,0.6143,0.6146,0.6139,0.6143,0.614,0.613,0.6135,0.6138,0.6089,0.6089,0.6089,0,0,0.6537,0.651,0.6503,0.6477,0.6438,0.6407,0.6405,0.6358,0.6339,0.6319,0.6282,0.6264,0.6225,0.6199,0.618,0.6202,0.6174,0.6196,0.6221,0.6213,0.6217,0.622,0.6225,0.6228,0.6197,0.6197,0.6197,0,0.6572,0.6544,0.6503,0.6488,0.6469,0.6424,0.6415,0.6392,0.6347,0.6335,0.6321,0.627,0.6241,0.622,0.6225,0.6213,0.6207,0.6201,0.622,0.6222,0.6224,0.6229,0.6231,0.6199,0.6199,0.6199,0.6199,0,0.6587,0.6569,0.6567,0.6524,0.6505,0.6494,0.645,0.6436,0.6409,0.638,0.6359,0.6323,0.6289,0.6282,0.6257,0.6257,0.625,0.6229,0.6205,0.6232,0.6235,0.6237,0.6203,0.6202,0.6201,0.6201,0,0,0.6656,0.6589,0.6589,0.6568,0.652,0.6504,0.6489,0.6456,0.6444,0.6414,0.6399,0.6366,0.6346,0.6325,0.6296,0.629,0.6306,0.6269,0.6267,0.6275,0.63,0.6315,0.6317,0.6287,0.6288,0.6288,0.6302,0,0.6681,0.6653,0.6614,0.6598,0.6579,0.6535,0.6522,0.649,0.6462,0.6441,0.6409,0.6385,0.6362,0.6348,0.634,0.6306,0.631,0.6304,0.6271,0.6271,0.6281,0.632,0.6336,0.6351,0.6304,0.6304,0.6304,0,0.6707,0.6678,0.666,0.6611,0.6602,0.6591,0.6556,0.6537,0.6499,0.6479,0.6455,0.6423,0.6403,0.6383,0.6354,0.6351,0.6335,0.6316,0.6316,0.631,0.6288,0.6313,0.6355,0.6357,0.6306,0.6306,0.6306,0,0.6756,0.6713,0.6696,0.6679,0.6623,0.6615,0.6591,0.6553,0.6535,0.6504,0.6491,0.646,0.6442,0.6417,0.6376,0.6366,0.6351,0.6328,0.6332,0.6333,0.633,0.633,0.6368,0.6323,0.6323,0.6323,0.6323,0,0.6787,0.6777,0.6717,0.6706,0.6693,0.6648,0.6636,0.6608,0.6574,0.6556,0.6516,0.65,0.6449,0.6426,0.6394,0.6374,0.6367,0.6348,0.6339,0.6351,0.6353,0.6338,0.6336,0.6323,0.6323,0.6323,0.6323,0,0.6839,0.6799,0.6777,0.6725,0.6711,0.6703,0.6658,0.6645,0.6614,0.6591,0.6583,0.6534,0.6505,0.6463,0.6421,0.64,0.6383,0.637,0.6396,0.639,0.6396,0.6395,0.6425,0.6425,0.6382,0.6382,0.6383,0,0.6861,0.6852,0.6798,0.6783,0.676,0.6737,0.6718,0.6673,0.6654,0.661,0.6602,0.657,0.6541,0.6496,0.6456,0.6423,0.6408,0.6421,0.6403,0.6414,0.6406,0.6406,0.6404,0.6425,0.6426,0.6426,0.6427,0,0.6903,0.6882,0.6856,0.6823,0.6801,0.6772,0.6741,0.6731,0.6679,0.666,0.663,0.6608,0.6564,0.6532,0.6493,0.6467,0.6437,0.6433,0.6431,0.6442,0.6456,0.6446,0.6405,0.6432,0.6431,0.6431,0.6431,0.643,0.6938,0.6927,0.6887,0.6859,0.6831,0.6803,0.6787,0.6754,0.6727,0.6688,0.6664,0.6634,0.6594,0.6539,0.6514,0.6489,0.6477,0.6476,0.6475,0.6475,0.6478,0.6461,0.6482,0.6482,0.6482,0.6482,0.6481,0,0.6976,0.6948,0.6922,0.688,0.6857,0.6832,0.6796,0.6778,0.6752,0.6718,0.669,0.6654,0.6622,0.6579,0.6543,0.6531,0.6517,0.6523,0.6523,0.6517,0.6492,0.6496,0.6535,0.6535,0.6535,0.6535,0.6535,0.6535,0.6993,0.6972,0.6947,0.6911,0.6882,0.6853,0.6834,0.6807,0.6779,0.674,0.6713,0.6686,0.6647,0.6608,0.6576,0.6564,0.6552,0.6562,0.6546,0.6524,0.6519,0.6514,0.6517,0.6561,0.6561,0.6572,0.6572,0.6573]},{"header":{"parameterUnit":"m.s-1","parameterCategory":1,"la1":30.2991,"la2":30.254,"lo1":-89.0895,"lo2":-89.0444,"dy":0.0017,"dx":0.0017,"nx":28,"ny":28,"refTime":"2024-08-15T03:00:00:Z","depth":0,"parameterNumber":3,"parameterNumberName":"V-component_of_WINDS"},"data":[0,0,0,0,0,0,0,0,0,0,0,0,0,0,0,0,0,0,0,0,0,0,0,0,0,0,0,0,0,0,0,0,0,0,0,0,0,0,0,0,0,0,0,0,0,0,0,0,0,0,0,0,0,0,0,0,0,0,1.4429,1.4429,0,1.4478,1.4478,1.4479,1.4483,1.4482,1.4482,1.4481,1.4528,1.453,1.4532,0,0,0,0,0,0,0,0,0,0,0,0,0,1.4334,1.4335,1.4429,1.4429,1.443,1.4478,1.4478,1.4479,1.4483,1.4482,1.4482,1.4481,1.4528,1.453,1.4532,0,0,0,0,0,0,0,0,0,0,0,0,0,1.4378,1.4336,1.4428,1.4438,1.4439,1.4478,1.4478,1.4479,1.4483,1.4482,1.4481,1.4481,1.4527,1.453,1.4532,1.4564,0,0,1.454,1.4541,0,0,0,0,0,0,0,0,1.4375,1.4381,1.4436,1.4437,1.4439,1.4473,1.4462,1.4508,1.4483,1.4466,1.4481,1.448,1.451,1.4514,1.4525,1.4566,1.4568,1.454,1.4542,1.4543,1.4544,0,0,0,0,0,0,0,1.4372,1.4379,1.4448,1.4436,1.4438,1.4438,1.4443,1.4471,1.4492,1.4468,1.4468,1.4474,1.4511,1.4523,1.4526,1.4569,1.454,1.4543,1.4544,1.4545,1.4636,1.4637,0,0,0,0,0,0,1.4368,1.4377,1.4446,1.4449,1.4405,1.444,1.4446,1.4463,1.4492,1.4495,1.4475,1.4474,1.4519,1.4523,1.4528,1.4566,1.4543,1.4545,1.4547,1.4635,1.4636,1.4637,0,0,0,0,0,0,1.4366,1.4374,1.4444,1.4413,1.4422,1.4443,1.4461,1.4464,1.4476,1.4497,1.45,1.4483,1.4518,1.4524,1.4555,1.4568,1.4547,1.4549,1.4634,1.4636,1.4637,1.4643,0,0,0,0,0,0,1.4363,1.4374,1.4387,1.4414,1.4424,1.4472,1.4462,1.4466,1.4481,1.4481,1.4506,1.4509,1.4518,1.4551,1.4557,1.4571,1.4551,1.4633,1.4635,1.4636,1.4641,1.4644,1.4646,0,0,0,0,0,1.436,1.4386,1.4388,1.4396,1.4441,1.4473,1.4478,1.4489,1.4482,1.4495,1.4508,1.4508,1.4565,1.4554,1.4561,1.4576,1.4633,1.4634,1.4636,1.464,1.4643,1.4646,0,0,0,0,0,0,1.436,1.439,1.4392,1.4428,1.4448,1.4473,1.449,1.4492,1.4514,1.4512,1.4523,1.4529,1.4559,1.457,1.4557,1.4607,1.4598,1.4601,1.4598,1.4602,1.4604,1.46,1.4553,0,0,0,0,0,1.4365,1.4389,1.4413,1.4442,1.4452,1.4469,1.4483,1.449,1.451,1.4518,1.4534,1.4553,1.4574,1.4589,1.461,1.4643,1.4648,1.4656,1.4659,1.4661,1.4663,1.468,1.4683,1.4644,1.4644,1.4644,0,0,1.4374,1.4393,1.4407,1.4443,1.4459,1.4482,1.4476,1.4502,1.4518,1.4522,1.4552,1.4563,1.4585,1.4616,1.4631,1.4627,1.4675,1.4663,1.4664,1.4666,1.4682,1.4686,1.4689,1.4645,1.4645,1.4644,0,0,1.4402,1.442,1.4445,1.4462,1.4486,1.4497,1.4503,1.4528,1.4536,1.4566,1.4569,1.4588,1.4626,1.4641,1.4653,1.4686,1.4686,1.4692,1.4704,1.472,1.4723,1.4726,1.4736,1.474,1.4695,1.4695,1.4695,0,1.441,1.4446,1.4458,1.4483,1.4498,1.4503,1.4528,1.4542,1.4572,1.4581,1.4577,1.4623,1.4638,1.4672,1.468,1.4691,1.4696,1.4689,1.4722,1.4725,1.4728,1.4737,1.4741,1.4695,1.4695,1.4695,1.4695,0,1.4454,1.4479,1.4496,1.4526,1.4542,1.4567,1.4581,1.4596,1.4601,1.4612,1.4641,1.4659,1.4683,1.4692,1.4697,1.4726,1.4723,1.472,1.4711,1.4732,1.4741,1.4745,1.4696,1.4696,1.4696,1.4696,0,0,1.4484,1.4519,1.4525,1.4538,1.4564,1.4583,1.4607,1.4632,1.4644,1.4664,1.4683,1.4715,1.4712,1.4726,1.4732,1.4746,1.4768,1.4741,1.4742,1.4744,1.48,1.4801,1.4805,1.4769,1.477,1.477,1.4797,0,1.4514,1.4559,1.4569,1.4607,1.4629,1.4633,1.4653,1.4671,1.4681,1.47,1.4711,1.4733,1.4728,1.4737,1.4751,1.4763,1.4779,1.4761,1.4785,1.4786,1.4779,1.481,1.4812,1.4837,1.4801,1.4802,1.4802,0,1.4556,1.4577,1.4617,1.4639,1.4649,1.4667,1.469,1.4709,1.4728,1.4734,1.4749,1.4754,1.4777,1.4767,1.4798,1.4786,1.4796,1.4803,1.4804,1.4806,1.4795,1.4812,1.4846,1.4849,1.4808,1.4808,1.4807,0,1.4572,1.4611,1.4639,1.465,1.4677,1.469,1.4701,1.472,1.4734,1.4753,1.4761,1.4783,1.4794,1.481,1.4819,1.4811,1.4849,1.484,1.4853,1.4853,1.4861,1.486,1.4895,1.4869,1.4869,1.4869,1.4869,0,1.4605,1.4628,1.4647,1.4664,1.469,1.4701,1.4726,1.4737,1.4754,1.4772,1.4777,1.4793,1.4805,1.4823,1.483,1.4854,1.486,1.4864,1.4866,1.4863,1.4863,1.487,1.4868,1.487,1.487,1.487,1.4869,0,1.4627,1.4641,1.4672,1.4695,1.4701,1.4719,1.4738,1.4754,1.4764,1.4787,1.4793,1.4808,1.4829,1.484,1.4867,1.4871,1.4898,1.4899,1.4891,1.4892,1.4904,1.4902,1.4944,1.495,1.4921,1.4921,1.4921,0,1.4647,1.4665,1.469,1.4703,1.4715,1.4736,1.475,1.4761,1.4774,1.4797,1.481,1.4831,1.4849,1.4882,1.4895,1.4915,1.4915,1.4929,1.4918,1.4915,1.4914,1.4913,1.4914,1.493,1.4931,1.4931,1.4931,0,1.4679,1.4684,1.4705,1.4727,1.4744,1.4761,1.4779,1.4789,1.4802,1.4818,1.484,1.4853,1.488,1.4901,1.4921,1.4931,1.4933,1.4934,1.4938,1.4936,1.493,1.4932,1.4895,1.4933,1.4933,1.4933,1.4933,1.4933,1.47,1.4716,1.4735,1.4757,1.4772,1.4788,1.4803,1.4815,1.4834,1.4857,1.4862,1.4885,1.4902,1.493,1.494,1.4957,1.4954,1.496,1.4962,1.4963,1.4963,1.4928,1.4961,1.4961,1.4961,1.4961,1.4961,0,1.4731,1.4744,1.4764,1.4789,1.4805,1.4806,1.4825,1.4839,1.4859,1.4875,1.4893,1.4917,1.4937,1.4951,1.497,1.4981,1.4982,1.4986,1.4984,1.4986,1.4965,1.4959,1.4984,1.4984,1.4984,1.4984,1.4984,1.4984,1.475,1.4776,1.4783,1.4816,1.4828,1.4851,1.4862,1.4876,1.4889,1.4916,1.4933,1.4942,1.4957,1.4977,1.4995,1.4998,1.5004,1.5008,1.5011,1.4991,1.4988,1.4986,1.498,1.501,1.501,1.5031,1.5031,1.5031]}]]